User: anonymous   Login
Location: La Silve
(44.2414°N, 5.8889°E)
Time: 06:36:20
(UTC+00:00)
Language:

deb Delta 111 - Orbit

View from above orbital plane
View from above orbital plane
View from above satellite
View from above satellite

Ground track
Ground track

The orbit data is extracted from the following two-line orbital elements,

1 21933U 75052JT  21170.87298878  .00000055  00000-0  20789-3 0  9994
2 21933  99.3077  40.1712 0165949 358.6894  62.4813 13.22522541431219
Epoch (UTC): 19 June 2021 20:57:06
Eccentricity: 0.0165949
inclination: 99.3077°
perigee height: 1050 km
apogee height: 1300 km
right ascension of ascending node: 40.1712°
argument of perigee: 358.6894°
revolutions per day: 13.22522541
mean anomaly at epoch: 62.4813°
orbit number at epoch: 43121

The dashed part of the orbit path shows where the satellite is in the earth's shadow,  

DLR